Showing default

TBA - TO BE ASSIGNED, 64495

Orbit data source: Space-Track

TBA - TO BE ASSIGNED named objects are likely recently launched satellites that are being tracked but not necessarily identified.

Loading next visibility...
Identifier
64495, 2025-133Z
Orbit
LEO
Last TLE update
11 hours ago
Origin
Manufacturer
SpaceX/Seattle
Mission
Operational spacecraft
Bus & Motor
STARLINK V2MO, Unknown motor
Mass
575 kg wet, ~530 kg dry
Launch date (UTC)
2025-06-23 (1 week ago)
Launch vehicle
FALCON 9
Launch site
Air Force Eastern Test Range (AFETR)
Object type
Payload
Rocket body
Debris
Shape & HBR
Unknown
Radar Cross Section
RCS unknown

Expand to show TLE details & history

TLE from 11 hours ago
0 STARLINK-34364
1 64495U 25133Z   25181.91668981 -.01248498  00000-0 -48733-2 0  9992
2 64495  53.1554 219.1581 0000892  83.9747 143.7514 15.88758926  2452
Epoch: 2025-06-30T22:00Z
TLE epoch observation values (Epoch: 2025-06-30T22:00:01.999Z)
Latitude
-36.52644°
Longitude
-176.57485°
Altitude
317.979 km
Speed
7.717 km/s
True Right ascension
04h 50m 36s
True Declination
-36° 21' 05"
Sunlit
Object was in daylight at epoch
Visualization orbit readout
Latitude
3.08655°
Longitude
-30.12026°
Altitude
309.814 km
Speed
7.724 km/s
Apparent Right ascension
12h 15m 04s
Apparent Declination
-23° 41' 40"
Sunlit
Object is in full shadow
Visualization observer readout
Local Sidereal Time
20:46:53
Azimuth
274.211° WNW
Elevation
-43.615°
Doppler factor
1
Orbital elements
Apogee altitude
306.621 km
Perigee altitude
305.429 km
Semi-major axis
6,684.162 km
Eccentricity
0.00009
Inclination
53.1554°
RAAN
219.1581°
Arg. of periapsis
83.9747°
True anomaly
Unknown
Mean anomaly
143.7514°
Eccentric anomaly
Unknown
Mean motion
3.97167 °/min
Orbital period
90.64 mins
BSTAR
-0.0048733
Loading maneuver chart data...
Loading SW <> Apogee altitude chart data...

TBA - TO BE ASSIGNED Visibility forecast

Observer location: undefined°, undefined°

Span
Click to sort rows by Start time (UTC) header in descending order
Start Az.
Max El. time (UTC)
Max El. Az.
Max El.
End time (UTC)
End Az.
4 mins2025-07-02 04:58:39.740Z224.7° SW2025-07-02 05:00:39.740Z64.729° ENE40.687°2025-07-02 05:02:39.740Z52.013° ENE
|